Change the Weather History Date:

Monday, March 25, 2013

  Actual Average Record
Temperature  
Mean Temperature 14 °F -  
Max Temperature 24 °F 39 °F 64 °F (1968)
Min Temperature 5 °F 23 °F -12 °F (1955)
Degree Days  
Heating Degree Days 50    
Moisture  
Dew Point 15 °F    
Average Humidity 82    
Maximum Humidity 93    
Minimum Humidity 69    
Precipitation  
Precipitation 0.00 in - - ()
Sea Level Pressure  
Sea Level Pressure 30.32 in    
Wind  
Wind Speed 14 mph (NNW)    
Max Wind Speed 18 mph    
Max Gust Speed 23 mph    
Visibility 10 miles    
Events Rain , Snow    
Averages and records for this station are not official NWS values.
T = Trace of Precipitation, MM = Missing Value Source: NWS Daily Summary

Daily Weather History Graph

Daily Weather History Graph

Search for Another Location

Airport or City:

Trip Planner

Search our weather history database for the weather conditions in past years. The results will help you decide how hot, cold, wet, or windy it might be!

Date:

Astronomy

Mar. 25, 2013 Rise Set
Actual Time 7:21 AM CDT 7:50 PM CDT
Civil Twilight 6:50 AM CDT 8:21 PM CDT
Nautical Twilight 6:12 AM CDT 8:58 PM CDT
Astronomical Twilight 5:34 AM CDT 9:37 PM CDT
Moon 6:19 PM CDT (3/25) 6:11 AM CDT (3/25)
Length of Visible Light 13h 31m
Length of Day
12h 28m
Waxing Gibbous, 96% of the Moon is Illuminated
Mar 25
Waxing Gibbous
Mar 27
Full
Apr 2
Last Quarter
Apr 10
New
Apr 18
First Quarter

Hourly Weather History & Observations

Time (CDT) Temp. Windchill Dew Point Humidity Pressure Visibility Wind Dir Wind Speed Gust Speed Precip Events Conditions
12:15 AM 19.4 °F 5.5 °F 17.6 °F 93% 30.26 in 10.0 mi NNW 15.0 mph 20.7 mph N/A   Overcast
12:35 AM 19.4 °F 6.0 °F 17.6 °F 93% 30.27 in 10.0 mi North 13.8 mph - N/A   Overcast
12:55 AM 21.2 °F 8.3 °F 17.6 °F 86% 30.27 in 10.0 mi North 13.8 mph - N/A   Overcast
1:15 AM 21.2 °F 8.3 °F 17.6 °F 86% 30.27 in 10.0 mi North 13.8 mph - N/A   Overcast
1:35 AM 21.2 °F 7.8 °F 17.6 °F 86% 30.27 in 10.0 mi NNW 15.0 mph - N/A   Overcast
1:55 AM 21.2 °F 7.8 °F 17.6 °F 86% 30.27 in 10.0 mi NNW 15.0 mph 19.6 mph N/A   Overcast
2:15 AM 21.2 °F 7.3 °F 17.6 °F 86% 30.27 in 10.0 mi NNW 16.1 mph - N/A   Overcast
2:35 AM 21.2 °F 8.3 °F 17.6 °F 86% 30.28 in 10.0 mi NNW 13.8 mph - N/A   Overcast
2:55 AM 21.2 °F 7.8 °F 17.6 °F 86% 30.28 in 10.0 mi NNW 15.0 mph - N/A   Overcast
3:15 AM 21.2 °F 6.8 °F 17.6 °F 86% 30.28 in 10.0 mi NNW 17.3 mph - N/A Snow Light Snow
3:35 AM 21.2 °F 7.8 °F 17.6 °F 86% 30.28 in 10.0 mi NNW 15.0 mph - N/A   Overcast
3:55 AM 21.2 °F 7.8 °F 17.6 °F 86% 30.27 in 10.0 mi NNW 15.0 mph - N/A   Overcast
4:15 AM 21.2 °F 7.3 °F 15.8 °F 80% 30.28 in 10.0 mi NNW 16.1 mph 21.9 mph N/A Snow Light Snow
4:35 AM 19.4 °F 5.5 °F 15.8 °F 86% 30.28 in 10.0 mi NNW 15.0 mph - N/A   Overcast
4:55 AM 19.4 °F 5.5 °F 15.8 °F 86% 30.28 in 10.0 mi NNW 15.0 mph 20.7 mph N/A   Overcast
5:15 AM 19.4 °F 5.5 °F 15.8 °F 86% 30.28 in 8.0 mi NNW 15.0 mph - N/A Snow Light Snow
5:35 AM 19.4 °F 6.0 °F 15.8 °F 86% 30.29 in 8.0 mi NNW 13.8 mph - N/A Snow Light Snow
5:55 AM 19.4 °F 6.0 °F 15.8 °F 86% 30.29 in 10.0 mi NNW 13.8 mph - N/A Snow Light Snow
6:15 AM 19.4 °F 5.0 °F 15.8 °F 86% 30.29 in 9.0 mi NNW 16.1 mph - N/A Snow Light Snow
6:35 AM 19.4 °F 5.0 °F 15.8 °F 86% 30.30 in 10.0 mi NNW 16.1 mph 20.7 mph N/A Snow Light Snow
6:55 AM 19.4 °F 5.0 °F 15.8 °F 86% 30.31 in 10.0 mi NNW 16.1 mph 20.7 mph N/A   Overcast
7:15 AM 19.4 °F 4.1 °F 15.8 °F 86% 30.31 in 9.0 mi NNW 18.4 mph 23.0 mph N/A Snow Light Snow
7:35 AM 19.4 °F 6.6 °F 15.8 °F 86% 30.32 in 10.0 mi NNW 12.7 mph - N/A   Overcast
7:55 AM 19.4 °F 4.1 °F 15.8 °F 86% 30.32 in 9.0 mi NNW 18.4 mph 21.9 mph N/A Snow Light Snow
8:15 AM 19.4 °F 6.0 °F 15.8 °F 86% 30.32 in 8.0 mi NNW 13.8 mph - N/A Snow Light Snow
8:35 AM 19.4 °F 6.6 °F 15.8 °F 86% 30.33 in 10.0 mi NNW 12.7 mph - N/A   Overcast
8:55 AM 19.4 °F 7.2 °F 15.8 °F 86% 30.33 in 10.0 mi NNW 11.5 mph - N/A   Overcast
9:15 AM 19.4 °F 6.0 °F 15.8 °F 86% 30.34 in 10.0 mi NNW 13.8 mph - N/A   Overcast
9:35 AM 19.4 °F 5.5 °F 15.8 °F 86% 30.34 in 7.0 mi NNW 15.0 mph - N/A Snow Light Snow
9:55 AM 19.4 °F 6.0 °F 15.8 °F 86% 30.34 in 4.0 mi NNW 13.8 mph - N/A Snow Light Snow
10:15 AM 19.4 °F 5.0 °F 15.8 °F 86% 30.35 in 10.0 mi NNW 16.1 mph - N/A Rain Light Freezing Rain
10:35 AM 19.4 °F 5.5 °F 15.8 °F 86% 30.35 in 8.0 mi NNW 15.0 mph - N/A Rain Light Freezing Rain
10:55 AM 19.4 °F 5.5 °F 15.8 °F 86% 30.35 in 4.0 mi NNW 15.0 mph - N/A Snow Light Snow
11:15 AM 21.2 °F 7.8 °F 17.6 °F 86% 30.35 in 8.0 mi NNW 15.0 mph - N/A Rain Light Freezing Rain
11:35 AM 23.0 °F 11.1 °F 17.6 °F 80% 30.35 in 10.0 mi NNW 12.7 mph - N/A   Overcast
11:55 AM 23.0 °F 10.6 °F 17.6 °F 80% 30.35 in 10.0 mi NNW 13.8 mph - N/A   Overcast
12:15 PM 23.0 °F 10.6 °F 17.6 °F 80% 30.35 in 10.0 mi North 13.8 mph - N/A   Overcast
12:35 PM 23.0 °F 10.6 °F 17.6 °F 80% 30.35 in 10.0 mi North 13.8 mph - N/A   Overcast
12:55 PM 23.0 °F 10.1 °F 17.6 °F 80% 30.35 in 10.0 mi North 15.0 mph - N/A   Mostly Cloudy
1:15 PM 23.0 °F 10.1 °F 17.6 °F 80% 30.35 in 10.0 mi North 15.0 mph - N/A   Scattered Clouds
1:35 PM 23.0 °F 10.6 °F 17.6 °F 80% 30.35 in 10.0 mi North 13.8 mph - N/A   Mostly Cloudy
1:55 PM 23.0 °F 9.6 °F 17.6 °F 80% 30.35 in 10.0 mi North 16.1 mph - N/A   Partly Cloudy
2:15 PM 23.0 °F 9.2 °F 17.6 °F 80% 30.35 in 10.0 mi North 17.3 mph 20.7 mph N/A   Partly Cloudy
2:35 PM 24.8 °F 11.9 °F 17.6 °F 74% 30.34 in 10.0 mi North 16.1 mph - N/A   Scattered Clouds
2:55 PM 23.0 °F 8.7 °F 15.8 °F 74% 30.34 in 10.0 mi NNW 18.4 mph - N/A   Scattered Clouds
3:15 PM 23.0 °F 10.1 °F 17.6 °F 80% 30.34 in 10.0 mi North 15.0 mph - N/A   Partly Cloudy
3:35 PM 24.8 °F 11.9 °F 15.8 °F 69% 30.34 in 10.0 mi NNW 16.1 mph - N/A   Partly Cloudy
3:55 PM 23.0 °F 10.6 °F 15.8 °F 74% 30.34 in 10.0 mi North 13.8 mph - N/A   Clear
4:15 PM 23.0 °F 9.6 °F 15.8 °F 74% 30.33 in 10.0 mi North 16.1 mph - N/A   Clear
4:35 PM 24.8 °F 14.0 °F 15.8 °F 69% 30.33 in 10.0 mi North 11.5 mph - N/A   Partly Cloudy
4:55 PM 23.0 °F 10.6 °F 15.8 °F 74% 30.33 in 10.0 mi NNW 13.8 mph - N/A   Scattered Clouds
5:15 PM 23.0 °F 10.6 °F 15.8 °F 74% 30.33 in 10.0 mi NNW 13.8 mph - N/A   Clear
5:35 PM 23.0 °F 11.7 °F 15.8 °F 74% 30.33 in 10.0 mi North 11.5 mph - N/A   Clear
5:55 PM 23.0 °F 11.7 °F 15.8 °F 74% 30.33 in 10.0 mi NNW 11.5 mph - N/A   Clear
6:15 PM 23.0 °F 11.7 °F 15.8 °F 74% 30.34 in 10.0 mi North 11.5 mph - N/A   Clear
6:35 PM 23.0 °F 12.4 °F 15.8 °F 74% 30.34 in 10.0 mi NNW 10.4 mph - N/A   Clear
6:55 PM 23.0 °F 12.4 °F 15.8 °F 74% 30.34 in 10.0 mi NNW 10.4 mph - N/A   Clear
7:15 PM 21.2 °F 11.7 °F 15.8 °F 80% 30.34 in 10.0 mi NNW 8.1 mph - N/A   Clear
7:35 PM 19.4 °F 10.4 °F 14.0 °F 80% 30.34 in 10.0 mi NNW 6.9 mph - N/A   Clear
7:55 PM 17.6 °F 8.2 °F 12.2 °F 79% 30.34 in 10.0 mi NNW 6.9 mph - N/A   Clear
8:15 PM 17.6 °F 7.3 °F 12.2 °F 79% 30.34 in 10.0 mi NNW 8.1 mph - N/A   Clear
8:35 PM 15.8 °F 6.1 °F 10.4 °F 79% 30.34 in 10.0 mi NNW 6.9 mph - N/A   Clear
8:55 PM 15.8 °F 6.1 °F 10.4 °F 79% 30.34 in 10.0 mi NNW 6.9 mph - N/A   Clear
9:15 PM 15.8 °F 5.1 °F 10.4 °F 79% 30.34 in 10.0 mi NNW 8.1 mph - N/A   Clear
9:35 PM 14.0 °F 3.9 °F 8.6 °F 79% 30.35 in 10.0 mi NW 6.9 mph - N/A   Clear
9:55 PM 12.2 °F 1.7 °F 8.6 °F 85% 30.35 in 10.0 mi NW 6.9 mph - N/A   Clear
10:15 PM 8.6 °F -1.3 °F 5.0 °F 85% 30.35 in 10.0 mi West 5.8 mph - N/A   Clear
10:35 PM 6.8 °F -0.1 °F 5.0 °F 92% 30.35 in 10.0 mi WNW 3.5 mph - N/A   Clear
10:55 PM 8.6 °F -2.6 °F 6.8 °F 92% 30.35 in 10.0 mi West 6.9 mph - N/A   Clear
11:15 PM 6.8 °F -3.5 °F 3.2 °F 85% 30.34 in 10.0 mi West 5.8 mph - N/A   Clear
11:35 PM 5.0 °F -6.9 °F 1.4 °F 85% 30.35 in 10.0 mi WNW 6.9 mph - N/A   Clear
11:55 PM 6.8 °F -3.5 °F 3.2 °F 85% 30.34 in 10.0 mi WNW 5.8 mph - N/A   Clear